Location: Melbourne
(37.8170°S, 144.9670°E)
Time: 20:28:57
(UTC+10:00)

ISS - Visible Passes

Search period start: 05 August 2015 00:00
Search period end: 15 August 2015 00:00
Orbit: 401 x 403 km, 51.6° (Epoch: 04 August)

Date Brightness Start Highest point End Pass type
(mag) Time Alt. Az. Time Alt. Az. Time Alt. Az.
06 Aug -1.6 06:19:15 10° NNW 06:22:17 35° NE 06:25:22 10° ESE visible
07 Aug -0.5 05:27:09 10° N 05:29:22 17° NE 05:31:41 10° E visible
08 Aug -3.4 06:09:32 12° NW 06:12:29 87° SSW 06:15:50 10° SE visible
09 Aug -2.3 05:19:28 43° NE 05:19:28 43° NE 05:22:38 10° ESE visible
10 Aug -2.6 06:01:47 29° WSW 06:02:47 37° SSW 06:05:55 10° SE visible
11 Aug -1.5 05:11:15 27° SE 05:11:15 27° SE 05:12:57 10° SE visible
12 Aug -1.6 05:53:09 20° SSW 05:53:11 20° SSW 05:55:43 10° SSE visible
13 Aug -0.5 05:02:19 14° SSE 05:02:19 14° SSE 05:02:54 10° SSE visible
14 Aug -0.9 05:44:00 13° SSW 05:44:00 13° SSW 05:45:15 10° S visible
